Regional Weather Roundup
Issued by NWS

Home | Current Version | Previous Version | Graphics & Text | Print | Product List | Glossary On
Versions: 1 2 3 4 5 6 7 8 9 10 11 12 13 14 15 16 17 18 19 20 21 22 23 24 25 26 27 28 29 30 31 32 33 34 35 36 37 38 39 40 41 42 43 44 45 46 47 48 49 50
000
ASUS43 KTOP 260859
RWRKS

WEATHER ROUNDUP FOR KANSAS
NATIONAL WEATHER SERVICE GOODLAND KS
300 AM CST MON JAN 26 2015

NOTE:  "FAIR" INDICATES FEW OR NO CLOUDS BELOW 12,000 FEET WITH NO
SIGNIFICANT WEATHER AND/OR OBSTRUCTIONS TO VISIBILITY.

KSZ001>006-013>018-027>032-041>047-261000-
NORTHWEST KANSAS

CITY           SKY/WX    TMP DP  RH WIND       PRES   REMARKS
GOODLAND       PTCLDY    40  30  67 W15       30.11S WCI  32
HAYS           CLEAR     30  18  59 W3        30.05F
HILL CITY      CLEAR     35  28  75 W10       30.05S WCI  27
RUSSELL        CLEAR     30  25  81 SW15      30.04F WCI  19
$$

KSZ061>065-074>080-084>089-261000-
SOUTHWEST KANSAS

CITY           SKY/WX    TMP DP  RH WIND       PRES   REMARKS
DODGE CITY     CLEAR     38  23  55 W12       30.12F WCI  30
ELKHART          N/A     39  27  62 W10         N/A  WCI  32
GARDEN CITY    CLEAR     34  28  79 W10       30.12S WCI  26
GREAT BEND     CLEAR     28  21  74 SW7       30.10F
LIBERAL        CLEAR     36  27  69 W12       30.17S WCI  27
$$

KSZ066>073-081>083-090>101-261000-
SOUTHEAST KANSAS

CITY           SKY/WX    TMP DP  RH WIND       PRES   REMARKS
CHANUTE        CLEAR     28  26  92 W6        30.14R
COFFEYVILLE    CLEAR     26  24  92 SW3       30.15S FOG
HUTCHINSON     MOCLDY    31  26  82 SW7       30.13S
MEDICINE LODGE   N/A     25  21  85 N3        30.15S
NEWTON         PTCLDY    28  21  74 SW7       30.13F
PARSONS        CLEAR     23  22  96 CALM      30.15R
WICHITA INTL   PTCLDY    27  24  89 SW5       30.14S
WICHITA JABRA  PTCLDY    29  25  85 SW5       30.14R
WINFIELD       PTCLDY    25  22  88 CALM      30.17R
$$

KSZ007>012-019>026-033>040-048>060-102>105-261000-
NORTHEAST KANSAS

CITY           SKY/WX    TMP DP  RH WIND       PRES   REMARKS
CONCORDIA      MOCLDY    33  30  88 SW9       30.06F
EMPORIA        CLEAR     26  24  92 SW6       30.11F
LAWRENCE       CLEAR     19  17  92 NW3       30.11F
MANHATTAN      MOCLDY    28  26  92 SW3       30.11F
OLATHE IND     CLEAR     24  23  96 SW3       30.09F
OLATHE EXE     CLEAR     25  24  96 CALM      30.08F
SALINA         MOCLDY    28  25  88 S5        30.11F
TOPEKA BILLARD CLEAR     25  23  92 CALM      30.11S
TOPEKA FORBES  CLEAR     26  22  84 CALM      30.09S
$$



USA.gov is the U.S. government's official web portal to all federal, state and local government web resources and services.